This is the latest recevied weather packets stored in our database for station/object CT2IRJ-11. If no packets are shown the sender has not sent any weather packets the latest 10 day(s).
| Time | Temp. | Humidity | Pressure | Rain* | Wind** | Luminosity | Snow |
|---|---|---|---|---|---|---|---|
| 1777922010 | 15.56° C | 64% | 1016.6 hPa | 0 mm | - | 9 W/m² | - |
| 1777921711 | 15.56° C | 64% | 1016.6 hPa | 0 mm | - | 12 W/m² | - |
| 1777921410 | 16.11° C | 65% | 1016.6 hPa | 0 mm | - | 14 W/m² | - |
| 1777921110 | 16.11° C | 64% | 1016.6 hPa | 0 mm | - | 17 W/m² | - |
| 1777920810 | 16.67° C | 63% | 1016.6 hPa | 0 mm | - | 18 W/m² | - |
| 1777920510 | 16.67° C | 63% | 1016.3 hPa | 0 mm | - | 20 W/m² | - |
| 1777920209 | 16.67° C | 63% | 1016.3 hPa | 0 mm | - | 23 W/m² | - |
| 1777919910 | 16.67° C | 61% | 1016.3 hPa | 0 mm | - | 25 W/m² | - |
| 1777919610 | 17.22° C | 59% | 1016.6 hPa | 0 mm | - | 26 W/m² | - |
| 1777919309 | 17.22° C | 58% | 1016.3 hPa | 0 mm | - | 28 W/m² | - |
| 1777919011 | 17.22° C | 57% | 1016.3 hPa | 0 mm | - | 30 W/m² | - |
| 1777918710 | 17.22° C | 56% | 1016.6 hPa | 0 mm | - | 31 W/m² | - |
| 1777918410 | 17.78° C | 55% | 1016.3 hPa | 0 mm | - | 34 W/m² | - |
| 1777918109 | 17.78° C | 56% | 1016.3 hPa | 0 mm | - | 35 W/m² | - |
| 1777917810 | 17.78° C | 54% | 1016.3 hPa | 0 mm | - | 37 W/m² | - |
| 1777917510 | 18.33° C | 54% | 1015.9 hPa | 0 mm | - | 39 W/m² | - |
| 1777917210 | 18.89° C | 53% | 1016.3 hPa | 0 mm | - | 66 W/m² | - |
| 1777916910 | 18.89° C | 53% | 1016.3 hPa | 0 mm | - | 51 W/m² | - |
| 1777916611 | 18.89° C | 52% | 1016.3 hPa | 0 mm | - | 56 W/m² | - |
| 1777916312 | 19.44° C | 54% | 1016.3 hPa | 0 mm | - | 61 W/m² | - |
| 1777916009 | 20° C | 53% | 1016.3 hPa | 0 mm | - | 169 W/m² | - |
| 1777915710 | 20.56° C | 52% | 1016.3 hPa | 0 mm | - | 215 W/m² | - |
| 1777915409 | 20.56° C | 51% | 1016.3 hPa | 0 mm | - | 235 W/m² | - |
| 1777915110 | 20.56° C | 51% | 1016.3 hPa | 0 mm | - | 246 W/m² | - |
| 1777914810 | 20.56° C | 50% | 1015.9 hPa | 0 mm | - | 249 W/m² | - |
* Rain latest hour (hover to see other rain measurements)
** Current wind speed in m/s (hover to see current wind gust speed)